When you browse on this site, cookies collect data to enhance your experience and personalize the content and advertising you see.
Visit our Privacy Policy to learn more. By continuing to use the site, you agree to this use of cookies and data.
  • In Denmark
  • List of Countries
  • For 7 days
  • Water Temperature
  • Satellite Maps
  • Weather Map
  • Weather Widgets
  • user-avatar
    Login

    Hourly Weather Santiago de Compostela

    Today, 16 June, Sunday

    Time Temperature Precipitation Wind Pressure Humidity
    00:00 +8°C° 0 mm 0 mps 744 mmHg 98%
    01:00 +8°C° 0 mm 0 mps 743 mmHg 98%
    02:00 +8°C° 0 mm 1 mps 743 mmHg 98%
    03:00 +9°C° 0 mm 1 mps 743 mmHg 97%
    04:00 +9°C° 0 mm 1 mps 743 mmHg 96%
    05:00 +9°C° 0 mm 1 mps 743 mmHg 95%
    06:00 +12°C° 0 mm 1 mps 743 mmHg 82%
    07:00 +15°C° 0 mm 1 mps 743 mmHg 70%
    08:00 +19°C° 0 mm 1 mps 744 mmHg 57%
    09:00 +21°C° 0 mm 1 mps 743 mmHg 50%
    10:00 +23°C° 0 mm 1 mps 743 mmHg 43%
    11:00 +25°C° 0 mm 1 mps 743 mmHg 36%
    12:00 +25°C° 0 mm 1 mps 743 mmHg 40%
    13:00 +24°C° 0 mm 2 mps 743 mmHg 43%
    14:00 +24°C° 0 mm 3 mps 742 mmHg 46%
    15:00 +21°C° 0 mm 2 mps 742 mmHg 52%
    16:00 +20°C° 0 mm 2 mps 742 mmHg 58%
    17:00 +19°C° 0 mm 2 mps 742 mmHg 63%
    18:00 +16°C° 0 mm 2 mps 742 mmHg 74%
    19:00 +14°C° 0 mm 1 mps 743 mmHg 84%
    20:00 +12°C° 0 mm 1 mps 743 mmHg 95%
    21:00 +11°C° 0 mm 1 mps 743 mmHg 96%
    22:00 +11°C° 0 mm 1 mps 743 mmHg 97%
    23:00 +10°C° 0 mm 1 mps 742 mmHg 99%

    Tomorrow, 17 June, Monday

    Time Temperature Precipitation Wind Pressure Humidity
    00:00 +11°C° 0 mm 1 mps 742 mmHg 98%
    01:00 +11°C° 0 mm 1 mps 742 mmHg 97%
    02:00 +12°C° 0 mm 1 mps 742 mmHg 96%
    03:00 +12°C° 0 mm 1 mps 741 mmHg 94%
    04:00 +12°C° 0 mm 1 mps 741 mmHg 93%
    05:00 +13°C° 0 mm 1 mps 741 mmHg 91%
    06:00 +15°C° 0 mm 1 mps 741 mmHg 81%
    07:00 +18°C° 0 mm 1 mps 741 mmHg 71%
    08:00 +20°C° 0 mm 1 mps 741 mmHg 62%
    09:00 +22°C° 0 mm 1 mps 741 mmHg 55%
    10:00 +24°C° 0 mm 1 mps 741 mmHg 49%
    11:00 +26°C° 0 mm 1 mps 741 mmHg 43%
    12:00 +25°C° 0 mm 2 mps 741 mmHg 43%
    13:00 +25°C° 0 mm 2 mps 740 mmHg 44%
    14:00 +24°C° 0 mm 3 mps 740 mmHg 45%
    15:00 +23°C° 0 mm 2 mps 740 mmHg 50%
    16:00 +22°C° 0 mm 1 mps 740 mmHg 54%
    17:00 +21°C° 0 mm 1 mps 739 mmHg 59%
    18:00 +17°C° 0 mm 0 mps 739 mmHg 66%
    19:00 +16°C° 0 mm 0 mps 739 mmHg 72%
    20:00 +14°C° 0 mm 0 mps 739 mmHg 79%
    21:00 +13°C° 0 mm 0 mps 739 mmHg 82%
    22:00 +12°C° 0 mm 0 mps 738 mmHg 85%
    23:00 +11°C° 0 mm 0 mps 738 mmHg 88%

    Day after tomorrow, 18 June, Tuesday

    Time Temperature Precipitation Wind Pressure Humidity
    00:00 +11°C° 0 mm 0 mps 737 mmHg 88%
    01:00 +11°C° 0 mm 0 mps 737 mmHg 88%
    02:00 +11°C° 0 mm 0 mps 737 mmHg 89%
    03:00 +11°C° 0 mm 0 mps 737 mmHg 88%
    04:00 +11°C° 0 mm 0 mps 737 mmHg 88%
    05:00 +11°C° 0 mm 0 mps 737 mmHg 87%
    06:00 +14°C° 0 mm 1 mps 736 mmHg 75%
    07:00 +16°C° 0 mm 1 mps 736 mmHg 63%
    08:00 +20°C° 0 mm 1 mps 736 mmHg 51%
    09:00 +19°C° 0.1 mm 2 mps 736 mmHg 53%
    10:00 +20°C° 0.1 mm 2 mps 736 mmHg 56%
    11:00 +20°C° 0.1 mm 3 mps 736 mmHg 58%
    12:00 +19°C° 1.3 mm 2 mps 736 mmHg 71%
    13:00 +17°C° 1.3 mm 2 mps 736 mmHg 84%
    14:00 +16°C° 1.3 mm 2 mps 736 mmHg 97%
    15:00 +16°C° 2.1 mm 2 mps 736 mmHg 97%
    16:00 +16°C° 2.1 mm 2 mps 736 mmHg 96%
    17:00 +17°C° 2.1 mm 3 mps 736 mmHg 95%
    18:00 +16°C° 0.2 mm 3 mps 736 mmHg 96%
    19:00 +16°C° 0.2 mm 2 mps 736 mmHg 97%
    20:00 +15°C° 0.2 mm 2 mps 736 mmHg 98%
    21:00 +15°C° 0.1 mm 2 mps 736 mmHg 98%
    22:00 +15°C° 0.1 mm 2 mps 737 mmHg 98%
    23:00 +15°C° 0.1 mm 2 mps 737 mmHg 98%

    19 June, Wednesday

    Time Temperature Precipitation Wind Pressure Humidity
    00:00 +15°C° 0.1 mm 2 mps 736 mmHg 98%
    01:00 +15°C° 0.1 mm 2 mps 736 mmHg 98%
    02:00 +15°C° 0.1 mm 2 mps 736 mmHg 98%
    03:00 +15°C° 0 mm 2 mps 737 mmHg 98%
    04:00 +15°C° 0 mm 2 mps 737 mmHg 98%
    05:00 +15°C° 0 mm 2 mps 737 mmHg 98%
    06:00 +16°C° 0.1 mm 2 mps 737 mmHg 94%
    07:00 +17°C° 0.1 mm 2 mps 738 mmHg 90%
    08:00 +18°C° 0.1 mm 3 mps 738 mmHg 86%
    09:00 +18°C° 0.1 mm 3 mps 738 mmHg 78%
    10:00 +19°C° 0.1 mm 3 mps 738 mmHg 71%
    11:00 +20°C° 0.1 mm 3 mps 739 mmHg 64%
    12:00 +21°C° 0 mm 3 mps 739 mmHg 62%
    13:00 +21°C° 0 mm 3 mps 739 mmHg 60%
    14:00 +21°C° 0 mm 3 mps 739 mmHg 58%
    15:00 +20°C° 0 mm 3 mps 739 mmHg 62%
    16:00 +20°C° 0 mm 3 mps 739 mmHg 65%
    17:00 +19°C° 0 mm 2 mps 739 mmHg 69%
    18:00 +17°C° 0 mm 2 mps 740 mmHg 79%
    19:00 +15°C° 0 mm 1 mps 740 mmHg 88%
    20:00 +13°C° 0 mm 1 mps 740 mmHg 98%
    21:00 +13°C° 0 mm 1 mps 740 mmHg 98%
    22:00 +12°C° 0 mm 0 mps 740 mmHg 99%
    23:00 +12°C° 0 mm 0 mps 740 mmHg 99%

    20 June, Thursday

    Time Temperature Precipitation Wind Pressure Humidity
    00:00 +12°C° 0 mm 0 mps 740 mmHg 98%
    01:00 +12°C° 0 mm 0 mps 740 mmHg 98%
    02:00 +13°C° 0 mm 0 mps 740 mmHg 97%
    03:00 +13°C° 0.1 mm 0 mps 740 mmHg 97%
    04:00 +13°C° 0.1 mm 0 mps 740 mmHg 97%
    05:00 +13°C° 0.1 mm 0 mps 741 mmHg 96%
    06:00 +15°C° 0.2 mm 1 mps 741 mmHg 94%
    07:00 +15°C° 0.2 mm 1 mps 741 mmHg 93%
    08:00 +16°C° 0.2 mm 1 mps 741 mmHg 91%
    09:00 +18°C° 0.2 mm 1 mps 741 mmHg 84%
    10:00 +18°C° 0.2 mm 2 mps 742 mmHg 77%
    11:00 +19°C° 0.2 mm 2 mps 742 mmHg 70%
    12:00 +20°C° 0.1 mm 2 mps 742 mmHg 65%
    13:00 +20°C° 0.1 mm 2 mps 742 mmHg 60%
    14:00 +20°C° 0.1 mm 2 mps 742 mmHg 55%
    15:00 +20°C° 0 mm 2 mps 742 mmHg 56%
    16:00 +19°C° 0 mm 2 mps 742 mmHg 57%
    17:00 +18°C° 0 mm 2 mps 742 mmHg 58%
    18:00 +16°C° 0 mm 2 mps 742 mmHg 70%
    19:00 +14°C° 0 mm 1 mps 742 mmHg 82%
    20:00 +12°C° 0 mm 1 mps 742 mmHg 95%
    21:00 +11°C° 0 mm 1 mps 742 mmHg 96%
    22:00 +10°C° 0 mm 1 mps 742 mmHg 97%
    23:00 +9°C° 0 mm 0 mps 742 mmHg 99%

    21 June, Friday

    Time Temperature Precipitation Wind Pressure Humidity
    00:00 +10°C° 0 mm 1 mps 742 mmHg 99%
    01:00 +10°C° 0 mm 1 mps 742 mmHg 99%
    02:00 +10°C° 0 mm 1 mps 742 mmHg 99%
    03:00 +10°C° 0 mm 1 mps 742 mmHg 97%
    04:00 +11°C° 0 mm 1 mps 742 mmHg 96%
    05:00 +11°C° 0 mm 1 mps 742 mmHg 95%
    06:00 +13°C° 0 mm 1 mps 742 mmHg 84%
    07:00 +15°C° 0 mm 1 mps 743 mmHg 74%
    08:00 +18°C° 0 mm 1 mps 743 mmHg 64%
    09:00 +20°C° 0 mm 1 mps 742 mmHg 57%
    10:00 +21°C° 0 mm 2 mps 742 mmHg 49%
    11:00 +24°C° 0 mm 2 mps 742 mmHg 41%
    12:00 +24°C° 0 mm 2 mps 742 mmHg 43%
    13:00 +23°C° 0 mm 2 mps 742 mmHg 45%
    14:00 +22°C° 0 mm 3 mps 741 mmHg 46%
    15:00 +21°C° 0 mm 3 mps 741 mmHg 53%
    16:00 +19°C° 0 mm 3 mps 741 mmHg 59%
    17:00 +18°C° 0 mm 3 mps 741 mmHg 65%
    18:00 +16°C° 0 mm 2 mps 741 mmHg 74%
    19:00 +15°C° 0 mm 2 mps 741 mmHg 84%
    20:00 +13°C° 0 mm 1 mps 741 mmHg 93%
    21:00 +12°C° 0 mm 1 mps 741 mmHg 95%
    22:00 +12°C° 0 mm 1 mps 741 mmHg 96%
    23:00 +12°C° 0 mm 1 mps 741 mmHg 98%
    Show more